Ashland, WI

3:52 AM CST on February 11, 2016 (GMT -0600)
Kennedy Memorial

Weather History for KASX - January, 2014

Change the Weather History Date:

Thursday, January 9, 2014

  Actual Average Record
Temperature  
Mean Temperature -1 °F -  
Max Temperature 19 °F 18 °F 46 °F (1986)
Min Temperature -20 °F 0 °F -33 °F (1977)
Degree Days  
Heating Degree Days 66    
Moisture  
Dew Point -5 °F    
Average Humidity 68    
Maximum Humidity 90    
Minimum Humidity 49    
Precipitation  
Precipitation 0.00 in - - ()
Sea Level Pressure  
Sea Level Pressure 30.23 in    
Wind  
Wind Speed 7 mph (SSW)    
Max Wind Speed 16 mph    
Max Gust Speed 24 mph    
Visibility 10 miles    
Events      
Averages and records for this station are not official NWS values.
T = Trace of Precipitation, MM = Missing Value Source: NWS Daily Summary

Daily Weather History Graph

Daily Weather History Graph

Search for Another Location

Airport or City:

Trip Planner

Search our weather history database for the weather conditions in past years. The results will help you decide how hot, cold, wet, or windy it might be!

Date:

Astronomy

Jan. 09, 2014 Rise Set
Actual Time 7:46 AM CST 4:35 PM CST
Civil Twilight 7:11 AM CST 5:10 PM CST
Nautical Twilight 6:34 AM CST 5:47 PM CST
Astronomical Twilight 5:57 AM CST 6:24 PM CST
Moon 12:10 PM CST (1/9) 1:45 AM CST (1/9)
Length of Visible Light 9h 58m
Length of Day
8h 49m
Waxing Gibbous, 66% of the Moon is Illuminated
Jan 9
Waxing Gibbous
Jan 15
Full
Jan 23
Last Quarter
Jan 30
New
Feb 6
First Quarter

Hourly Weather History & Observations

Time (CST) Temp. Windchill Dew Point Humidity Pressure Visibility Wind Dir Wind Speed Gust Speed Precip Events Conditions
12:53 AM -14.1 °F -26.3 °F -18.9 °F 79% 30.48 in 10.0 mi South 4.6 mph - N/A   Clear
1:53 AM -14.1 °F -32.6 °F -18.9 °F 79% 30.49 in 10.0 mi SW 9.2 mph - N/A   Clear
2:53 AM -17.0 °F - -20.9 °F 82% 30.46 in 10.0 mi Calm Calm - N/A   Clear
3:53 AM -20.0 °F - -25.1 °F 78% 30.45 in 10.0 mi Calm Calm - N/A   Clear
4:53 AM -20.9 °F -31.7 °F -25.1 °F 81% 30.43 in 10.0 mi SSW 3.5 mph - N/A   Clear
5:53 AM -20.9 °F -31.7 °F -23.1 °F 90% 30.40 in 10.0 mi WNW 3.5 mph - N/A   Clear
6:53 AM -14.1 °F - -18.9 °F 79% 30.38 in 10.0 mi Calm Calm - N/A   Overcast
7:53 AM -7.1 °F - -13.0 °F 75% 30.34 in 10.0 mi Calm Calm - N/A   Overcast
8:53 AM 1.9 °F -12.9 °F -9.0 °F 60% 30.32 in 10.0 mi SSW 9.2 mph - N/A   Overcast
9:53 AM 3.0 °F -14.1 °F -8.0 °F 60% 30.30 in 10.0 mi SSW 12.7 mph - N/A   Overcast
10:53 AM 8.1 °F -4.3 °F -5.1 °F 55% 30.25 in 10.0 mi SSW 8.1 mph - N/A   Overcast
11:53 AM 10.9 °F -3.4 °F -4.0 °F 51% 30.22 in 10.0 mi SW 11.5 mph 21.9 mph N/A   Clear
12:53 PM 14.0 °F -0.8 °F -2.0 °F 49% 30.17 in 10.0 mi SSW 13.8 mph 19.6 mph N/A   Partly Cloudy
1:53 PM 16.0 °F 0.6 °F -0.0 °F 49% 30.15 in 10.0 mi SSW 16.1 mph 21.9 mph N/A   Overcast
2:53 PM 17.1 °F 5.0 °F 1.9 °F 52% 30.13 in 10.0 mi SSW 10.4 mph - N/A   Overcast
3:53 PM 17.1 °F 3.0 °F 1.9 °F 52% 30.12 in 10.0 mi SSW 13.8 mph 20.7 mph N/A   Overcast
5:53 PM 17.1 °F 3.0 °F 5.0 °F 59% 30.10 in 10.0 mi SSW 13.8 mph 24.2 mph N/A   Clear
6:53 PM 18.0 °F 6.1 °F 10.0 °F 71% 30.05 in 10.0 mi SSW 10.4 mph - N/A   Overcast
7:53 PM 18.0 °F 7.7 °F 9.0 °F 68% 30.04 in 10.0 mi SSW 8.1 mph - N/A   Clear
8:53 PM 17.1 °F 5.8 °F 8.1 °F 68% 30.01 in 10.0 mi South 9.2 mph - N/A   Clear
9:53 PM 17.1 °F 6.6 °F 9.0 °F 71% 30.00 in 10.0 mi South 8.1 mph - N/A   Clear
10:53 PM 18.0 °F 7.7 °F 10.9 °F 74% 29.98 in 10.0 mi SSW 8.1 mph 17.3 mph N/A   Clear
11:53 PM 19.0 °F 8.2 °F 12.0 °F 74% 29.96 in 10.0 mi SSW 9.2 mph - N/A   Clear